START_TIME,STEP,MOV.,M6,t_acc.,M7,t_acc.,M19,t_acc.,H36,t_acc.
1979-03-07 06:00:24.820 ,2,1,0.,12.0,0.,12.0,0.,12.0,0.,12.0
1979-03-07 06:00:36.820 ,2,1,0.,12.0,0.,12.0,0.,12.0,0.,12.0
1979-03-07 06:00:48.820 ,3,1,0.,12.0,0.,12.0,0.,12.0,0.,12.0
1979-03-07 06:01:00.820 ,3,1,0.,12.0,0.,12.0,0.,12.0,0.,12.0
1979-03-07 06:01:12.820 ,4,1,0.,12.0,0.,12.0,0.,12.0,0.,12.0
1979-03-07 06:01:24.820 ,4,1,0.,12.0,0.,12.0,0.,12.0,0.,12.0
1979-03-07 06:01:36.820 ,5,1,0.,12.0,0.,12.0,0.,12.0,0.,12.0
1979-03-07 06:01:48.820 ,5,1,0.,12.0,0.,12.0,0.,12.0,0.,12.0
1979-03-07 06:02:00.810 ,6,1,0.,12.0,0.,12.0,0.,12.0,0.,12.0
1979-03-07 06:02:12.820 ,6,1,0.,12.0,0.,12.0,0.,12.0,0.,12.0
1979-03-07 06:02:24.820 ,7,1,0.,12.0,0.,12.0,0.,12.0,0.,12.0
1979-03-07 06:02:36.820 ,7,1,0.,12.0,0.,12.0,0.,12.0,0.,12.0
1979-03-07 06:02:48.820 ,7,1,0.,12.0,0.,12.0,0.,12.0,0.,12.0
1979-03-07 06:03:00.820 ,7,1,0.,12.0,0.,12.0,0.,12.0,0.,12.0
1979-03-07 06:03:12.820 ,6,1,0.,12.0,0.,12.0,0.,12.0,0.,12.0
1979-03-07 06:03:24.820 ,6,1,0.,12.0,0.,12.0,0.,12.0,0.,12.0
1979-03-07 06:03:36.820 ,5,1,0.,12.0,0.,12.0,0.,12.0,0.,12.0
1979-03-07 06:03:48.820 ,5,1,0.,12.0,0.,12.0,0.,12.0,0.,12.0
1979-03-07 06:04:00.820 ,4,1,0.,12.0,0.,12.0,0.,12.0,0.,12.0
1979-03-07 06:04:12.820 ,4,1,0.,12.0,0.,12.0,0.,12.0,0.,12.0
1979-03-07 06:04:24.820 ,3,1,0.,12.0,0.,12.0,0.,12.0,0.,12.0
1979-03-07 06:04:36.820 ,3,1,0.,12.0,0.,12.0,0.,12.0,0.,12.0
1979-03-07 06:04:48.820 ,2,1,0.,12.0,0.,12.0,0.,12.0,0.,12.0
1979-03-07 06:05:00.820 ,2,1,0.,12.0,0.,12.0,0.,12.0,0.,12.0
1979-03-07 06:05:12.820 ,1,1,0.,12.0,0.,12.0,0.,12.0,0.,12.0
1979-03-07 06:05:24.820 ,1,1,0.,12.0,0.,12.0,0.,12.0,0.,12.0
1979-03-07 06:05:36.820 ,0,1,0.,12.0,0.,12.0,0.,12.0,0.,12.0
1979-03-07 06:05:48.820 ,0,1,0.,12.0,0.,12.0,0.,12.0,0.,12.0
1979-03-07 06:06:00.820 ,0,1,0.,12.0,0.,12.0,0.,12.0,0.,12.0
1979-03-07 06:06:12.820 ,0,1,0.,12.0,0.,12.0,0.,12.0,0.,12.0
1979-03-07 06:06:24.820 ,1,1,0.,12.0,0.,12.0,0.,12.0,0.,12.0
1979-03-07 06:06:36.820 ,1,1,1.,12.0,0.,12.0,0.,12.0,0.,12.0
1979-03-07 06:06:48.820 ,2,1,0.,12.0,0.,12.0,0.,12.0,0.,12.0
1979-03-07 06:07:00.820 ,2,1,0.,12.0,0.,12.0,0.,12.0,0.,12.0
1979-03-07 06:07:12.820 ,3,1,0.,12.0,0.,12.0,0.,12.0,0.,12.0
1979-03-07 06:07:24.820 ,3,1,0.,12.0,0.,12.0,0.,12.0,0.,12.0
1979-03-07 06:07:36.820 ,4,1,0.,12.0,0.,12.0,0.,12.0,0.,12.0
1979-03-07 06:07:48.820 ,4,1,0.,12.0,0.,12.0,0.,12.0,0.,12.0
1979-03-07 06:08:00.820 ,5,1,0.,12.0,0.,12.0,0.,12.0,0.,12.0
1979-03-07 06:08:12.820 ,5,1,0.,12.0,0.,12.0,0.,12.0,0.,12.0
1979-03-07 06:08:24.820 ,6,1,0.,12.0,0.,12.0,0.,12.0,0.,12.0
1979-03-07 06:08:36.820 ,6,1,0.,12.0,0.,12.0,0.,12.0,0.,12.0
1979-03-07 06:08:48.820 ,7,1,0.,12.0,0.,12.0,0.,12.0,0.,12.0
1979-03-07 06:09:00.820 ,7,1,0.,12.0,0.,12.0,0.,12.0,0.,12.0
1979-03-07 06:09:12.820 ,7,1,0.,12.0,0.,12.0,0.,12.0,0.,12.0
1979-03-07 06:09:24.820 ,7,1,0.,12.0,0.,12.0,0.,12.0,0.,12.0
1979-03-07 06:09:36.820 ,6,1,0.,12.0,0.,12.0,0.,12.0,0.,12.0
1979-03-07 06:09:48.820 ,6,1,0.,12.0,0.,12.0,0.,12.0,0.,12.0
1979-03-07 06:10:00.820 ,5,1,0.,12.0,0.,12.0,0.,12.0,0.,12.0
1979-03-07 06:10:12.820 ,5,1,0.,12.0,0.,12.0,0.,12.0,0.,12.0
1979-03-07 06:10:24.820 ,4,1,0.,12.0,0.,12.0,0.,12.0,0.,12.0
1979-03-07 06:10:36.820 ,4,1,0.,12.0,0.,12.0,0.,12.0,0.,12.0
1979-03-07 06:10:48.820 ,3,1,0.,12.0,0.,12.0,0.,12.0,0.,12.0
1979-03-07 06:11:00.820 ,3,1,0.,12.0,0.,12.0,0.,12.0,0.,12.0
1979-03-07 06:11:12.820 ,2,1,0.,12.0,0.,12.0,0.,12.0,0.,12.0
1979-03-07 06:11:24.820 ,2,1,0.,12.0,0.,12.0,0.,12.0,0.,12.0
1979-03-07 06:11:36.820 ,1,1,0.,12.0,0.,12.0,0.,12.0,0.,12.0
1979-03-07 06:11:48.820 ,1,1,1.,12.0,0.,12.0,0.,12.0,0.,12.0
1979-03-07 06:12:00.820 ,0,1,0.,12.0,0.,12.0,0.,12.0,0.,12.0
1979-03-07 06:12:12.820 ,0,1,0.,12.0,0.,12.0,0.,12.0,0.,12.0
1979-03-07 06:12:24.820 ,0,1,0.,12.0,0.,12.0,0.,12.0,0.,12.0
1979-03-07 06:12:36.820 ,0,1,0.,12.0,0.,12.0,0.,12.0,0.,12.0
1979-03-07 06:12:48.820 ,1,1,0.,12.0,0.,12.0,0.,12.0,0.,12.0
1979-03-07 06:13:00.820 ,1,1,0.,12.0,0.,12.0,0.,12.0,0.,12.0
1979-03-07 06:13:12.820 ,2,1,0.,12.0,0.,12.0,0.,12.0,0.,12.0
1979-03-07 06:13:24.820 ,2,1,0.,12.0,0.,12.0,0.,12.0,0.,12.0
1979-03-07 06:13:36.820 ,3,1,0.,12.0,0.,12.0,0.,12.0,0.,12.0
1979-03-07 06:13:48.820 ,3,1,0.,12.0,0.,12.0,0.,12.0,0.,12.0
1979-03-07 06:14:00.820 ,4,1,0.,12.0,0.,12.0,0.,12.0,0.,12.0
1979-03-07 06:14:12.820 ,4,1,0.,12.0,0.,12.0,0.,12.0,0.,12.0
1979-03-07 06:14:24.820 ,5,1,0.,12.0,0.,12.0,0.,12.0,0.,12.0
1979-03-07 06:14:36.820 ,5,1,0.,12.0,0.,12.0,0.,12.0,0.,12.0
1979-03-07 06:14:48.820 ,6,1,0.,12.0,0.,12.0,0.,12.0,0.,12.0
1979-03-07 06:15:00.820 ,6,1,0.,12.0,0.,12.0,0.,12.0,0.,12.0
1979-03-07 06:15:12.820 ,7,1,0.,12.0,0.,12.0,0.,12.0,0.,12.0
1979-03-07 06:15:24.820 ,7,1,0.,12.0,0.,12.0,0.,12.0,0.,12.0
1979-03-07 06:15:36.820 ,7,1,0.,12.0,0.,12.0,0.,12.0,0.,12.0
1979-03-07 06:15:48.820 ,7,1,0.,12.0,0.,12.0,0.,12.0,0.,12.0
1979-03-07 06:16:00.820 ,6,1,0.,12.0,0.,12.0,0.,12.0,0.,12.0
1979-03-07 06:16:12.820 ,6,1,0.,12.0,0.,12.0,0.,12.0,0.,12.0
1979-03-07 06:16:24.820 ,5,1,0.,12.0,0.,12.0,0.,12.0,0.,12.0
1979-03-07 06:16:36.820 ,5,1,0.,12.0,0.,12.0,0.,12.0,0.,12.0
1979-03-07 06:16:48.820 ,4,1,0.,12.0,0.,12.0,0.,12.0,0.,12.0
1979-03-07 06:17:00.820 ,4,1,0.,12.0,0.,12.0,0.,12.0,0.,12.0
1979-03-07 06:17:12.820 ,3,1,0.,12.0,0.,12.0,0.,12.0,0.,12.0
1979-03-07 06:17:24.820 ,3,1,0.,12.0,0.,12.0,0.,12.0,0.,12.0
1979-03-07 06:17:36.820 ,2,1,0.,12.0,0.,12.0,0.,12.0,0.,12.0
1979-03-07 06:17:48.820 ,2,1,0.,12.0,0.,12.0,0.,12.0,0.,12.0
1979-03-07 06:18:00.820 ,1,1,0.,12.0,0.,12.0,0.,12.0,0.,12.0
1979-03-07 06:18:12.820 ,1,1,0.,12.0,0.,12.0,0.,12.0,0.,12.0
1979-03-07 06:18:24.820 ,0,1,0.,12.0,0.,12.0,0.,12.0,0.,12.0
1979-03-07 06:18:36.820 ,0,1,0.,12.0,0.,12.0,0.,12.0,0.,12.0
1979-03-07 06:18:48.820 ,0,1,0.,12.0,0.,12.0,0.,12.0,0.,12.0
1979-03-07 06:19:00.820 ,0,1,0.,12.0,0.,12.0,0.,12.0,0.,12.0
1979-03-07 06:19:12.820 ,1,1,0.,12.0,0.,12.0,0.,12.0,0.,12.0
1979-03-07 06:19:24.820 ,1,1,0.,12.0,0.,12.0,0.,12.0,0.,12.0
1979-03-07 06:19:36.820 ,2,1,0.,12.0,0.,12.0,0.,12.0,0.,12.0
1979-03-07 06:19:48.820 ,2,1,0.,12.0,0.,12.0,0.,12.0,0.,12.0
1979-03-07 06:20:00.820 ,3,1,0.,12.0,0.,12.0,0.,12.0,0.,12.0
1979-03-07 06:20:12.820 ,3,1,0.,12.0,0.,12.0,0.,12.0,0.,12.0
1979-03-07 06:20:24.820 ,4,1,0.,12.0,0.,12.0,0.,12.0,0.,12.0
1979-03-07 06:20:36.820 ,4,1,0.,12.0,0.,12.0,0.,12.0,0.,12.0
1979-03-07 06:20:48.820 ,5,1,0.,12.0,0.,12.0,0.,12.0,0.,12.0
1979-03-07 06:21:00.820 ,5,1,0.,12.0,0.,12.0,0.,12.0,0.,12.0
1979-03-07 06:21:12.820 ,6,1,0.,12.0,0.,12.0,0.,12.0,0.,12.0
1979-03-07 06:21:24.820 ,6,1,0.,12.0,0.,12.0,0.,12.0,0.,12.0
1979-03-07 06:21:36.820 ,7,1,0.,12.0,0.,12.0,0.,12.0,0.,12.0
1979-03-07 06:21:48.820 ,7,1,0.,12.0,0.,12.0,0.,12.0,0.,12.0
1979-03-07 06:22:00.820 ,7,1,0.,12.0,0.,12.0,0.,12.0,0.,12.0
1979-03-07 06:22:12.820 ,7,1,0.,12.0,0.,12.0,0.,12.0,0.,12.0
1979-03-07 06:22:24.820 ,6,1,0.,12.0,0.,12.0,0.,12.0,0.,12.0
1979-03-07 06:22:36.820 ,6,1,0.,12.0,0.,12.0,0.,12.0,0.,12.0
1979-03-07 06:22:48.820 ,5,1,0.,12.0,0.,12.0,0.,12.0,0.,12.0
1979-03-07 06:23:00.820 ,5,1,0.,12.0,0.,12.0,0.,12.0,0.,12.0
1979-03-07 06:23:12.820 ,4,1,0.,12.0,0.,12.0,0.,12.0,0.,12.0
1979-03-07 06:23:24.820 ,4,1,0.,12.0,0.,12.0,0.,12.0,0.,12.0
1979-03-07 06:23:36.820 ,3,1,0.,12.0,0.,12.0,0.,12.0,0.,12.0
1979-03-07 06:23:48.820 ,3,1,0.,12.0,0.,12.0,0.,12.0,0.,12.0
1979-03-07 06:24:00.820 ,2,1,0.,12.0,0.,12.0,0.,12.0,0.,12.0
1979-03-07 06:24:12.820 ,2,1,0.,12.0,0.,12.0,0.,12.0,0.,12.0
1979-03-07 06:24:24.820 ,1,1,0.,12.0,0.,12.0,0.,12.0,0.,12.0
1979-03-07 06:24:36.820 ,1,1,0.,12.0,0.,12.0,0.,12.0,0.,12.0
1979-03-07 06:24:48.820 ,0,1,0.,12.0,0.,12.0,0.,12.0,0.,12.0
1979-03-07 06:25:00.820 ,0,1,0.,12.0,0.,12.0,0.,12.0,0.,12.0
1979-03-07 06:25:12.820 ,0,1,0.,12.0,0.,12.0,0.,12.0,0.,12.0
1979-03-07 06:25:24.820 ,0,1,0.,12.0,0.,12.0,0.,12.0,0.,12.0
1979-03-07 06:25:36.820 ,1,1,0.,12.0,0.,12.0,0.,12.0,0.,12.0
1979-03-07 06:25:48.820 ,1,1,1.,12.0,0.,12.0,0.,12.0,0.,12.0
1979-03-07 06:26:00.820 ,2,1,0.,12.0,0.,12.0,0.,12.0,0.,12.0
1979-03-07 06:26:12.820 ,2,1,0.,12.0,0.,12.0,0.,12.0,0.,12.0
1979-03-07 06:26:24.820 ,3,1,0.,12.0,0.,12.0,0.,12.0,0.,12.0
1979-03-07 06:26:36.820 ,3,1,0.,12.0,0.,12.0,0.,12.0,0.,12.0
1979-03-07 06:26:48.820 ,4,1,0.,12.0,0.,12.0,0.,12.0,0.,12.0
1979-03-07 06:27:00.820 ,4,1,0.,12.0,0.,12.0,0.,12.0,0.,12.0
1979-03-07 06:27:12.820 ,5,1,0.,12.0,0.,12.0,0.,12.0,0.,12.0
1979-03-07 06:27:24.820 ,5,1,0.,12.0,0.,12.0,0.,12.0,0.,12.0
1979-03-07 06:27:36.820 ,6,1,0.,12.0,0.,12.0,0.,12.0,0.,12.0
1979-03-07 06:27:48.820 ,6,1,0.,12.0,0.,12.0,0.,12.0,0.,12.0
1979-03-07 06:28:00.820 ,7,1,0.,12.0,0.,12.0,0.,12.0,0.,12.0
1979-03-07 06:28:12.820 ,7,1,0.,12.0,0.,12.0,0.,12.0,0.,12.0
1979-03-07 06:28:24.820 ,7,1,0.,12.0,0.,12.0,0.,12.0,0.,12.0
1979-03-07 06:28:36.820 ,7,1,0.,12.0,0.,12.0,0.,12.0,0.,12.0
1979-03-07 06:28:48.820 ,6,1,0.,12.0,0.,12.0,0.,12.0,0.,12.0
1979-03-07 06:29:00.820 ,6,1,0.,12.0,0.,12.0,0.,12.0,0.,12.0
1979-03-07 06:29:12.820 ,5,1,0.,12.0,0.,12.0,0.,12.0,0.,12.0
1979-03-07 06:29:24.820 ,5,1,0.,12.0,0.,12.0,0.,12.0,0.,12.0
1979-03-07 06:29:36.820 ,4,1,0.,12.0,0.,12.0,0.,12.0,0.,12.0
1979-03-07 06:29:48.820 ,4,1,0.,12.0,0.,12.0,0.,12.0,0.,12.0
1979-03-07 06:30:00.820 ,3,1,0.,12.0,0.,12.0,0.,12.0,0.,12.0
1979-03-07 06:30:12.820 ,3,1,0.,12.0,0.,12.0,0.,12.0,0.,12.0
1979-03-07 06:30:24.820 ,2,1,0.,12.0,0.,12.0,0.,12.0,0.,12.0
1979-03-07 06:30:36.820 ,2,1,0.,12.0,0.,12.0,0.,12.0,0.,12.0
1979-03-07 06:30:48.820 ,1,1,0.,12.0,0.,12.0,0.,12.0,0.,12.0
1979-03-07 06:31:00.820 ,1,1,0.,12.0,0.,12.0,0.,12.0,0.,12.0
1979-03-07 06:31:12.820 ,0,1,0.,12.0,0.,12.0,0.,12.0,0.,12.0
1979-03-07 06:31:24.820 ,0,1,0.,12.0,0.,12.0,0.,12.0,0.,12.0
1979-03-07 06:31:36.820 ,0,1,0.,12.0,0.,12.0,0.,12.0,0.,12.0
1979-03-07 06:31:48.820 ,0,1,0.,12.0,0.,12.0,0.,12.0,0.,12.0
1979-03-07 06:32:00.820 ,1,1,0.,12.0,0.,12.0,0.,12.0,0.,12.0
1979-03-07 06:32:12.820 ,1,1,0.,12.0,0.,12.0,0.,12.0,0.,12.0
1979-03-07 06:32:24.820 ,2,1,0.,12.0,0.,12.0,0.,12.0,0.,12.0
1979-03-07 06:32:36.820 ,2,1,0.,12.0,0.,12.0,0.,12.0,0.,12.0
1979-03-07 06:32:48.820 ,3,1,0.,12.0,0.,12.0,0.,12.0,0.,12.0
1979-03-07 06:33:00.820 ,3,1,0.,12.0,0.,12.0,0.,12.0,0.,12.0
1979-03-07 06:33:12.820 ,4,1,0.,12.0,0.,12.0,0.,12.0,0.,12.0
1979-03-07 06:33:24.820 ,4,1,0.,12.0,0.,12.0,0.,12.0,0.,12.0
1979-03-07 06:33:36.820 ,5,1,0.,12.0,0.,12.0,0.,12.0,0.,12.0
1979-03-07 06:33:48.820 ,5,1,0.,12.0,0.,12.0,0.,12.0,0.,12.0
1979-03-07 06:34:00.820 ,6,1,0.,12.0,0.,12.0,0.,12.0,0.,12.0
1979-03-07 06:34:12.820 ,6,1,0.,12.0,0.,12.0,0.,12.0,0.,12.0
1979-03-07 06:34:24.820 ,7,1,0.,12.0,0.,12.0,0.,12.0,0.,12.0
1979-03-07 06:34:36.820 ,7,1,0.,12.0,0.,12.0,0.,12.0,0.,12.0
1979-03-07 06:34:48.820 ,7,1,0.,12.0,0.,12.0,0.,12.0,0.,12.0
1979-03-07 06:35:00.820 ,7,1,0.,12.0,0.,12.0,0.,12.0,0.,12.0
1979-03-07 06:35:12.820 ,6,1,0.,12.0,0.,12.0,0.,12.0,0.,12.0
1979-03-07 06:35:24.820 ,6,1,0.,12.0,0.,12.0,0.,12.0,0.,12.0
1979-03-07 06:35:36.820 ,5,1,0.,12.0,0.,12.0,0.,12.0,0.,12.0
1979-03-07 06:35:48.820 ,5,1,0.,12.0,0.,12.0,0.,12.0,0.,12.0
1979-03-07 06:36:00.820 ,4,1,0.,12.0,0.,12.0,0.,12.0,0.,12.0
1979-03-07 06:36:12.820 ,4,1,0.,12.0,0.,12.0,0.,12.0,0.,12.0
1979-03-07 06:36:24.820 ,3,1,0.,12.0,0.,12.0,0.,12.0,0.,12.0
1979-03-07 06:36:36.820 ,3,1,0.,12.0,0.,12.0,0.,12.0,0.,12.0
1979-03-07 06:36:48.820 ,2,1,0.,12.0,0.,12.0,0.,12.0,0.,12.0
1979-03-07 06:37:00.820 ,2,1,0.,12.0,0.,12.0,0.,12.0,0.,12.0
1979-03-07 06:37:12.820 ,1,1,0.,12.0,0.,12.0,0.,12.0,0.,12.0
1979-03-07 06:37:24.820 ,1,1,0.,12.0,0.,12.0,0.,12.0,0.,12.0
1979-03-07 06:37:36.820 ,0,1,0.,12.0,0.,12.0,0.,12.0,0.,12.0
1979-03-07 06:37:48.820 ,0,1,0.,12.0,0.,12.0,0.,12.0,0.,12.0
1979-03-07 06:38:00.820 ,0,1,0.,12.0,0.,12.0,0.,12.0,0.,12.0
1979-03-07 06:38:12.820 ,0,1,0.,12.0,0.,12.0,0.,12.0,0.,12.0
1979-03-07 06:38:24.820 ,3,1,0.,12.0,0.,12.0,0.,12.0,0.,12.0
1979-03-07 06:38:36.820 ,3,1,1.,12.0,0.,12.0,0.,12.0,0.,12.0
1979-03-07 06:38:48.820 ,7,1,0.,12.0,0.,12.0,0.,12.0,0.,12.0
1979-03-07 06:39:00.820 ,7,1,0.,12.0,0.,12.0,0.,12.0,0.,12.0
1979-03-07 06:39:12.820 ,4,1,0.,12.0,0.,12.0,0.,12.0,0.,12.0
1979-03-07 06:39:24.820 ,4,1,0.,12.0,0.,12.0,0.,12.0,0.,12.0
1979-03-07 06:39:36.820 ,0,1,0.,12.0,0.,12.0,0.,12.0,0.,12.0
1979-03-07 06:39:48.820 ,0,1,0.,12.0,0.,12.0,0.,12.0,0.,12.0
1979-03-07 06:40:00.820 ,3,1,0.,12.0,0.,12.0,0.,12.0,0.,12.0
1979-03-07 06:40:12.820 ,3,1,0.,12.0,0.,12.0,0.,12.0,0.,12.0
1979-03-07 06:40:24.820 ,7,1,0.,12.0,0.,12.0,0.,12.0,0.,12.0
1979-03-07 06:40:36.820 ,7,1,0.,12.0,0.,12.0,0.,12.0,0.,12.0
1979-03-07 06:40:48.820 ,4,1,0.,12.0,0.,12.0,0.,12.0,0.,12.0
1979-03-07 06:41:00.820 ,4,1,0.,12.0,0.,12.0,0.,12.0,0.,12.0
1979-03-07 06:41:12.820 ,0,1,0.,12.0,0.,12.0,0.,12.0,0.,12.0
1979-03-07 06:41:24.820 ,0,1,0.,12.0,0.,12.0,0.,12.0,0.,12.0
1979-03-07 06:41:36.820 ,3,1,0.,12.0,0.,12.0,0.,12.0,0.,12.0
1979-03-07 06:41:48.820 ,3,1,0.,12.0,0.,12.0,0.,12.0,0.,12.0
1979-03-07 06:42:00.820 ,7,1,0.,12.0,0.,12.0,0.,12.0,0.,12.0
1979-03-07 06:42:12.820 ,7,1,0.,12.0,0.,12.0,0.,12.0,0.,12.0
1979-03-07 06:42:24.820 ,4,1,0.,12.0,0.,12.0,0.,12.0,0.,12.0
1979-03-07 06:42:36.820 ,4,1,0.,12.0,0.,12.0,0.,12.0,0.,12.0
1979-03-07 06:42:48.820 ,0,1,0.,12.0,0.,12.0,0.,12.0,0.,12.0
1979-03-07 06:43:00.820 ,0,1,0.,12.0,0.,12.0,0.,12.0,0.,12.0
1979-03-07 06:43:12.820 ,3,1,0.,12.0,0.,12.0,0.,12.0,0.,12.0
1979-03-07 06:43:24.820 ,3,1,0.,12.0,0.,12.0,0.,12.0,0.,12.0
1979-03-07 06:43:36.820 ,7,1,0.,12.0,0.,12.0,0.,12.0,0.,12.0
1979-03-07 06:43:48.820 ,7,1,0.,12.0,0.,12.0,0.,12.0,0.,12.0
1979-03-07 06:44:00.820 ,4,1,0.,12.0,0.,12.0,0.,12.0,0.,12.0
1979-03-07 06:44:12.820 ,4,1,0.,12.0,0.,12.0,0.,12.0,0.,12.0
1979-03-07 06:44:24.820 ,0,1,0.,12.0,0.,12.0,0.,12.0,0.,12.0
1979-03-07 06:44:36.820 ,0,1,0.,12.0,0.,12.0,0.,12.0,0.,12.0
1979-03-07 06:44:48.820 ,3,1,0.,12.0,0.,12.0,0.,12.0,0.,12.0
1979-03-07 06:45:00.820 ,3,1,0.,12.0,0.,12.0,0.,12.0,0.,12.0
1979-03-07 06:45:12.820 ,7,1,0.,12.0,0.,12.0,0.,12.0,0.,12.0
1979-03-07 06:45:24.820 ,7,1,0.,12.0,0.,12.0,0.,12.0,0.,12.0
1979-03-07 06:45:36.820 ,4,1,0.,12.0,0.,12.0,0.,12.0,0.,12.0
1979-03-07 06:45:48.820 ,4,1,0.,12.0,0.,12.0,0.,12.0,0.,12.0
1979-03-07 06:46:00.820 ,0,1,0.,12.0,0.,12.0,0.,12.0,0.,12.0
1979-03-07 06:46:12.820 ,0,1,0.,12.0,0.,12.0,0.,12.0,0.,12.0
1979-03-07 06:46:24.820 ,3,1,0.,12.0,0.,12.0,0.,12.0,0.,12.0
1979-03-07 06:46:36.820 ,3,1,0.,12.0,0.,12.0,0.,12.0,0.,12.0
1979-03-07 06:46:48.820 ,7,1,0.,12.0,0.,12.0,0.,12.0,0.,12.0
1979-03-07 06:47:00.820 ,7,1,0.,12.0,0.,12.0,0.,12.0,0.,12.0
1979-03-07 06:47:12.820 ,4,1,0.,12.0,0.,12.0,0.,12.0,0.,12.0
1979-03-07 06:47:24.820 ,4,1,0.,12.0,0.,12.0,0.,12.0,0.,12.0
1979-03-07 06:47:36.820 ,0,1,0.,12.0,0.,12.0,0.,12.0,0.,12.0
1979-03-07 06:47:48.820 ,0,1,0.,12.0,0.,12.0,0.,12.0,0.,12.0
1979-03-07 06:48:00.820 ,3,1,0.,12.0,0.,12.0,0.,12.0,0.,12.0
1979-03-07 06:48:12.820 ,3,1,0.,12.0,0.,12.0,0.,12.0,0.,12.0
1979-03-07 06:48:24.820 ,7,1,0.,12.0,0.,12.0,0.,12.0,0.,12.0
1979-03-07 06:48:36.820 ,7,1,0.,12.0,0.,12.0,0.,12.0,0.,12.0
1979-03-07 06:48:48.820 ,4,1,0.,12.0,0.,12.0,0.,12.0,0.,12.0
1979-03-07 06:49:00.820 ,4,1,0.,12.0,0.,12.0,0.,12.0,0.,12.0
1979-03-07 06:49:12.820 ,0,1,0.,12.0,0.,12.0,0.,12.0,0.,12.0
1979-03-07 06:49:24.820 ,0,1,0.,12.0,0.,12.0,0.,12.0,0.,12.0
1979-03-07 06:49:36.820 ,3,1,0.,12.0,0.,12.0,0.,12.0,0.,12.0
1979-03-07 06:49:48.820 ,3,1,0.,12.0,0.,12.0,0.,12.0,0.,12.0
1979-03-07 06:50:00.820 ,7,1,0.,12.0,0.,12.0,0.,12.0,0.,12.0
1979-03-07 06:50:12.820 ,7,1,0.,12.0,0.,12.0,0.,12.0,0.,12.0
1979-03-07 06:50:24.820 ,4,1,0.,12.0,0.,12.0,0.,12.0,0.,12.0
1979-03-07 06:50:36.820 ,4,1,0.,12.0,0.,12.0,0.,12.0,0.,12.0
1979-03-07 06:50:48.820 ,0,1,0.,12.0,0.,12.0,0.,12.0,0.,12.0
1979-03-07 06:51:00.820 ,0,1,0.,12.0,0.,12.0,0.,12.0,0.,12.0
1979-03-07 06:51:12.820 ,3,1,0.,12.0,0.,12.0,0.,12.0,0.,12.0
1979-03-07 06:51:24.820 ,3,1,0.,12.0,0.,12.0,0.,12.0,0.,12.0
1979-03-07 06:51:36.820 ,7,1,0.,12.0,0.,12.0,0.,12.0,0.,12.0
1979-03-07 06:51:48.820 ,7,1,0.,12.0,0.,12.0,0.,12.0,0.,12.0
1979-03-07 06:52:00.820 ,4,1,0.,12.0,0.,12.0,0.,12.0,0.,12.0
1979-03-07 06:52:12.820 ,4,1,0.,12.0,0.,12.0,0.,12.0,0.,12.0
1979-03-07 06:52:24.820 ,0,1,0.,12.0,0.,12.0,0.,12.0,0.,12.0
1979-03-07 06:52:36.820 ,0,1,0.,12.0,0.,12.0,0.,12.0,0.,12.0
1979-03-07 06:52:48.820 ,3,1,0.,12.0,0.,12.0,0.,12.0,0.,12.0
1979-03-07 06:53:00.820 ,3,1,0.,12.0,0.,12.0,0.,12.0,0.,12.0
1979-03-07 06:53:12.820 ,7,1,0.,12.0,0.,12.0,0.,12.0,0.,12.0
1979-03-07 06:53:24.820 ,7,1,0.,12.0,0.,12.0,0.,12.0,0.,12.0
1979-03-07 06:53:36.820 ,4,1,0.,12.0,0.,12.0,0.,12.0,0.,12.0
1979-03-07 06:53:48.820 ,4,1,0.,12.0,0.,12.0,0.,12.0,0.,12.0
1979-03-07 06:54:00.820 ,0,1,0.,12.0,0.,12.0,0.,12.0,0.,12.0
1979-03-07 06:54:12.820 ,0,1,0.,12.0,0.,12.0,0.,12.0,0.,12.0
1979-03-07 06:54:24.820 ,3,1,0.,12.0,0.,12.0,0.,12.0,0.,12.0
1979-03-07 06:54:36.820 ,3,1,0.,12.0,0.,12.0,0.,12.0,0.,12.0
1979-03-07 06:54:48.820 ,7,1,0.,12.0,0.,12.0,0.,12.0,0.,12.0
1979-03-07 06:55:00.820 ,7,1,0.,12.0,0.,12.0,0.,12.0,0.,12.0
1979-03-07 06:55:12.820 ,4,1,0.,12.0,0.,12.0,0.,12.0,0.,12.0
1979-03-07 06:55:24.820 ,4,1,0.,12.0,0.,12.0,0.,12.0,0.,12.0
1979-03-07 06:55:36.820 ,0,1,0.,12.0,0.,12.0,0.,12.0,0.,12.0
1979-03-07 06:55:48.820 ,0,1,0.,12.0,0.,12.0,0.,12.0,0.,12.0
1979-03-07 06:56:00.820 ,3,1,0.,12.0,0.,12.0,0.,12.0,0.,12.0
1979-03-07 06:56:12.820 ,3,1,0.,12.0,0.,12.0,0.,12.0,0.,12.0
1979-03-07 06:56:24.820 ,7,1,0.,12.0,0.,12.0,0.,12.0,0.,12.0
1979-03-07 06:56:36.820 ,7,1,0.,12.0,0.,12.0,0.,12.0,0.,12.0
1979-03-07 06:56:48.820 ,4,1,0.,12.0,0.,12.0,0.,12.0,0.,12.0
1979-03-07 06:57:00.820 ,4,1,0.,12.0,0.,12.0,0.,12.0,0.,12.0
1979-03-07 06:57:12.820 ,0,1,0.,12.0,0.,12.0,0.,12.0,0.,12.0
1979-03-07 06:57:24.820 ,0,1,0.,12.0,0.,12.0,0.,12.0,0.,12.0
1979-03-07 06:57:36.820 ,3,1,0.,12.0,0.,12.0,0.,12.0,0.,12.0
1979-03-07 06:57:48.820 ,3,1,0.,12.0,0.,12.0,0.,12.0,0.,12.0
1979-03-07 06:58:00.820 ,7,1,0.,12.0,0.,12.0,0.,12.0,0.,12.0
1979-03-07 06:58:12.820 ,7,1,0.,12.0,0.,12.0,0.,12.0,0.,12.0
1979-03-07 06:58:24.820 ,4,1,0.,12.0,0.,12.0,0.,12.0,0.,12.0
1979-03-07 06:58:36.820 ,4,1,0.,12.0,0.,12.0,0.,12.0,0.,12.0
1979-03-07 06:58:48.820 ,0,1,0.,12.0,0.,12.0,0.,12.0,0.,12.0
1979-03-07 06:59:00.820 ,0,1,0.,12.0,0.,12.0,0.,12.0,0.,12.0
1979-03-07 06:59:12.820 ,3,1,0.,12.0,0.,12.0,0.,12.0,0.,12.0
1979-03-07 06:59:24.820 ,3,1,0.,12.0,0.,12.0,0.,12.0,0.,12.0
1979-03-07 06:59:36.820 ,7,1,0.,12.0,0.,12.0,0.,12.0,0.,12.0
1979-03-07 06:59:48.820 ,7,1,0.,12.0,0.,12.0,0.,12.0,0.,12.0
1979-03-07 07:00:00.820 ,4,1,0.,12.0,0.,12.0,0.,12.0,0.,12.0
1979-03-07 07:00:12.820 ,4,1,0.,12.0,0.,12.0,0.,12.0,0.,12.0
1979-03-07 07:00:24.820 ,0,1,0.,12.0,0.,12.0,0.,12.0,0.,12.0
1979-03-07 07:00:36.820 ,0,1,0.,12.0,0.,12.0,0.,12.0,0.,12.0
1979-03-07 07:00:48.820 ,3,1,0.,12.0,0.,12.0,0.,12.0,0.,12.0
1979-03-07 07:01:00.820 ,3,1,0.,12.0,0.,12.0,0.,12.0,0.,12.0
1979-03-07 07:01:12.820 ,7,1,0.,12.0,0.,12.0,0.,12.0,0.,12.0
1979-03-07 07:01:24.820 ,7,1,0.,12.0,0.,12.0,0.,12.0,0.,12.0
1979-03-07 07:01:36.820 ,4,1,0.,12.0,0.,12.0,0.,12.0,0.,12.0
1979-03-07 07:01:48.820 ,4,1,0.,12.0,0.,12.0,0.,12.0,0.,12.0
1979-03-07 07:02:00.820 ,0,1,0.,12.0,0.,12.0,0.,12.0,0.,12.0
1979-03-07 07:02:12.820 ,0,1,0.,12.0,0.,12.0,0.,12.0,0.,12.0
1979-03-07 07:02:24.820 ,3,1,0.,12.0,0.,12.0,0.,12.0,0.,12.0
1979-03-07 07:02:36.820 ,3,1,0.,12.0,0.,12.0,0.,12.0,0.,12.0
1979-03-07 07:02:48.820 ,7,1,0.,12.0,0.,12.0,0.,12.0,0.,12.0
1979-03-07 07:03:00.820 ,7,1,0.,12.0,0.,12.0,0.,12.0,0.,12.0
1979-03-07 07:03:12.820 ,4,1,0.,12.0,0.,12.0,0.,12.0,0.,12.0
1979-03-07 07:03:24.820 ,4,1,0.,12.0,0.,12.0,0.,12.0,0.,12.0
1979-03-07 07:03:36.820 ,0,1,0.,12.0,0.,12.0,0.,12.0,0.,12.0
1979-03-07 07:03:48.820 ,0,1,0.,12.0,0.,12.0,0.,12.0,0.,12.0
1979-03-07 07:04:00.820 ,3,1,0.,12.0,0.,12.0,0.,12.0,0.,12.0
1979-03-07 07:04:12.820 ,3,1,0.,12.0,0.,12.0,0.,12.0,0.,12.0
1979-03-07 07:04:24.820 ,7,1,0.,12.0,0.,12.0,0.,12.0,0.,12.0
1979-03-07 07:04:36.820 ,7,1,0.,12.0,0.,12.0,0.,12.0,0.,12.0
1979-03-07 07:04:48.820 ,4,1,0.,12.0,0.,12.0,0.,12.0,0.,12.0
1979-03-07 07:05:00.820 ,4,1,0.,12.0,0.,12.0,0.,12.0,0.,12.0
1979-03-07 07:05:12.820 ,0,1,0.,12.0,0.,12.0,0.,12.0,0.,12.0
1979-03-07 07:05:24.820 ,0,1,0.,12.0,0.,12.0,0.,12.0,0.,12.0
1979-03-07 07:05:36.820 ,3,1,0.,12.0,0.,12.0,0.,12.0,0.,12.0
1979-03-07 07:05:48.820 ,3,1,0.,12.0,0.,12.0,0.,12.0,0.,12.0
1979-03-07 07:06:00.820 ,7,1,0.,12.0,0.,12.0,0.,12.0,0.,12.0
1979-03-07 07:06:12.820 ,7,1,0.,12.0,0.,12.0,0.,12.0,0.,12.0
1979-03-07 07:06:24.820 ,4,1,0.,12.0,0.,12.0,0.,12.0,0.,12.0
1979-03-07 07:06:36.820 ,4,1,0.,12.0,0.,12.0,0.,12.0,0.,12.0
1979-03-07 07:06:48.820 ,0,1,0.,12.0,0.,12.0,0.,12.0,0.,12.0
1979-03-07 07:07:00.820 ,0,1,0.,12.0,0.,12.0,0.,12.0,0.,12.0
1979-03-07 07:07:12.820 ,3,1,0.,12.0,0.,12.0,0.,12.0,0.,12.0
1979-03-07 07:07:24.820 ,3,1,0.,12.0,0.,12.0,0.,12.0,0.,12.0
1979-03-07 07:07:36.820 ,7,1,0.,12.0,0.,12.0,0.,12.0,0.,12.0
1979-03-07 07:07:48.820 ,7,1,0.,12.0,0.,12.0,0.,12.0,0.,12.0
1979-03-07 07:08:00.820 ,4,1,0.,12.0,0.,12.0,0.,12.0,0.,12.0
1979-03-07 07:08:12.820 ,4,1,0.,12.0,0.,12.0,0.,12.0,0.,12.0
1979-03-07 07:08:24.820 ,0,1,0.,12.0,0.,12.0,0.,12.0,0.,12.0
1979-03-07 07:08:36.820 ,0,1,0.,12.0,0.,12.0,0.,12.0,0.,12.0
1979-03-07 07:08:48.820 ,3,1,0.,12.0,0.,12.0,0.,12.0,0.,12.0
1979-03-07 07:09:00.820 ,3,1,0.,12.0,0.,12.0,0.,12.0,0.,12.0
1979-03-07 07:09:12.820 ,7,1,0.,12.0,0.,12.0,0.,12.0,0.,12.0
1979-03-07 07:09:24.820 ,7,1,0.,12.0,0.,12.0,0.,12.0,0.,12.0
1979-03-07 07:09:36.820 ,4,1,0.,12.0,0.,12.0,0.,12.0,0.,12.0
1979-03-07 07:09:48.820 ,4,1,0.,12.0,0.,12.0,0.,12.0,0.,12.0
1979-03-07 07:10:00.820 ,0,1,0.,12.0,0.,12.0,0.,12.0,0.,12.0
1979-03-07 07:10:12.820 ,0,1,0.,12.0,0.,12.0,0.,12.0,0.,12.0
1979-03-07 07:10:24.820 ,3,1,0.,12.0,0.,12.0,0.,12.0,0.,12.0
1979-03-07 07:10:36.820 ,3,1,0.,12.0,0.,12.0,0.,12.0,0.,12.0
1979-03-07 07:10:48.820 ,7,1,0.,12.0,0.,12.0,0.,12.0,0.,12.0
1979-03-07 07:11:00.820 ,7,1,0.,12.0,0.,12.0,0.,12.0,0.,12.0
1979-03-07 07:11:12.820 ,4,1,0.,12.0,0.,12.0,0.,12.0,0.,12.0
1979-03-07 07:11:24.820 ,4,1,0.,12.0,0.,12.0,0.,12.0,0.,12.0
1979-03-07 07:11:36.820 ,0,1,0.,12.0,0.,12.0,0.,12.0,0.,12.0
1979-03-07 07:11:48.820 ,0,1,0.,12.0,0.,12.0,0.,12.0,0.,12.0
1979-03-07 07:12:00.820 ,3,1,0.,12.0,0.,12.0,0.,12.0,0.,12.0
1979-03-07 07:12:12.820 ,3,1,0.,12.0,0.,12.0,0.,12.0,0.,12.0
1979-03-07 07:12:24.820 ,7,1,0.,12.0,0.,12.0,0.,12.0,0.,12.0
1979-03-07 07:12:36.820 ,7,1,0.,12.0,0.,12.0,0.,12.0,0.,12.0
1979-03-07 07:12:48.820 ,4,1,0.,12.0,0.,12.0,0.,12.0,0.,12.0
1979-03-07 07:13:00.820 ,4,1,0.,12.0,0.,12.0,0.,12.0,0.,12.0
1979-03-07 07:13:12.820 ,0,1,0.,12.0,0.,12.0,0.,12.0,0.,12.0
1979-03-07 07:13:24.820 ,0,1,0.,12.0,0.,12.0,0.,12.0,0.,12.0
1979-03-07 07:13:36.820 ,3,1,0.,12.0,0.,12.0,0.,12.0,0.,12.0
1979-03-07 07:13:48.820 ,3,1,0.,12.0,0.,12.0,0.,12.0,0.,12.0
1979-03-07 07:14:00.820 ,7,1,0.,12.0,0.,12.0,0.,12.0,0.,12.0
1979-03-07 07:14:12.820 ,7,1,0.,12.0,0.,12.0,0.,12.0,0.,12.0
1979-03-07 07:14:24.820 ,4,1,0.,12.0,0.,12.0,0.,12.0,0.,12.0
1979-03-07 07:14:36.820 ,4,1,0.,12.0,0.,12.0,0.,12.0,0.,12.0
1979-03-07 07:14:48.820 ,0,1,0.,12.0,0.,12.0,0.,12.0,0.,12.0
1979-03-07 07:15:00.820 ,0,1,0.,12.0,0.,12.0,0.,12.0,0.,12.0
1979-03-07 07:15:12.820 ,3,1,0.,12.0,0.,12.0,0.,12.0,0.,12.0
1979-03-07 07:15:24.820 ,3,1,0.,12.0,0.,12.0,0.,12.0,0.,12.0
1979-03-07 07:15:36.820 ,7,1,0.,12.0,0.,12.0,0.,12.0,0.,12.0
1979-03-07 07:15:48.820 ,7,1,0.,12.0,0.,12.0,0.,12.0,0.,12.0
1979-03-07 07:16:00.820 ,4,1,0.,12.0,0.,12.0,0.,12.0,0.,12.0
1979-03-07 07:16:12.820 ,4,1,0.,12.0,0.,12.0,0.,12.0,0.,12.0
1979-03-07 07:16:24.820 ,0,1,0.,12.0,0.,12.0,0.,12.0,0.,12.0
1979-03-07 07:16:36.820 ,0,1,0.,12.0,0.,12.0,0.,12.0,0.,12.0
1979-03-07 07:16:48.820 ,3,1,0.,12.0,0.,12.0,0.,12.0,0.,12.0
1979-03-07 07:17:00.820 ,3,1,0.,12.0,0.,12.0,0.,12.0,0.,12.0
1979-03-07 07:17:12.820 ,7,1,0.,12.0,0.,12.0,0.,12.0,0.,12.0
1979-03-07 07:17:24.820 ,7,1,0.,12.0,0.,12.0,0.,12.0,0.,12.0